Caldwell, NJ

4:29 AM EDT on June 24, 2017 (GMT -0400)
Essex County

Weather History for KCDW - February, 2014

Change the Weather History Date:

Saturday, February 8, 2014

  Actual Average Record
Temperature  
Mean Temperature 20 °F -  
Max Temperature 28 °F 35 °F 62 °F (2017)
Min Temperature 12 °F 18 °F -6 °F (1963)
Degree Days  
Heating Degree Days 45    
Moisture  
Dew Point 4 °F    
Average Humidity 48    
Maximum Humidity 71    
Minimum Humidity 30    
Precipitation  
Precipitation 0.00 in - - ()
Sea Level Pressure  
Sea Level Pressure 30.29 in    
Wind  
Wind Speed 2 mph (SW)    
Max Wind Speed 6 mph    
Max Gust Speed -    
Visibility 10 miles    
Events      
Averages and records for this station are not official NWS values.
T = Trace of Precipitation, MM = Missing Value Source: NWS Daily Summary

Daily Weather History Graph

Daily Weather History Graph

Search for Another Location

Airport or City:

Trip Planner

Search our weather history database for the weather conditions in past years. The results will help you decide how hot, cold, wet, or windy it might be!

Date:

Astronomy

Feb. 08, 2014 Rise Set
Actual Time 6:59 AM EST 5:23 PM EST
Civil Twilight 6:31 AM EST 5:51 PM EST
Nautical Twilight 5:59 AM EST 6:24 PM EST
Astronomical Twilight 5:27 AM EST 6:56 PM EST
Moon 12:14 PM EST (2/8) 2:10 AM EST (2/8)
Length of Visible Light 11h 20m
Length of Day
10h 23m
Waxing Gibbous, 68% of the Moon is Illuminated
Feb 8
Waxing Gibbous
Feb 14
Full
Feb 22
Last Quarter
Mar 1
New
Mar 8
First Quarter

Hourly Weather History & Observations

Time (EST) Temp. Windchill Dew Point Humidity Pressure Visibility Wind Dir Wind Speed Gust Speed Precip Events Conditions
12:53 AM 23.0 °F 18.4 °F 5.0 °F 46% 30.32 in 10.0 mi West 3.5 mph - N/A   Clear
1:53 AM 21.9 °F - 3.0 °F 44% 30.33 in 10.0 mi Calm Calm - N/A   Clear
2:53 AM 21.0 °F 14.6 °F 1.0 °F 42% 30.34 in 10.0 mi West 4.6 mph - N/A   Clear
3:53 AM 18.0 °F - 1.9 °F 50% 30.35 in 10.0 mi Calm Calm - N/A   Clear
4:53 AM 15.1 °F - 3.0 °F 59% 30.36 in 10.0 mi Calm Calm - N/A   Clear
5:53 AM 12.0 °F - 3.0 °F 67% 30.35 in 10.0 mi Calm Calm - N/A   Clear
6:53 AM 12.9 °F 5.2 °F 3.9 °F 67% 30.36 in 10.0 mi South 4.6 mph - N/A   Clear
7:53 AM 15.1 °F - 3.9 °F 61% 30.36 in 10.0 mi Calm Calm - N/A   Clear
8:53 AM 19.0 °F - -0.0 °F 43% 30.37 in 10.0 mi Calm Calm - N/A   Clear
9:53 AM 19.9 °F 14.9 °F -0.9 °F 40% 30.36 in 10.0 mi South 3.5 mph - N/A   Clear
10:53 AM 21.9 °F - -2.0 °F 35% 30.34 in 10.0 mi Calm Calm - N/A   Clear
11:53 AM 24.1 °F - -0.9 °F 34% 30.31 in 10.0 mi Calm Calm - N/A   Scattered Clouds
12:53 PM 26.1 °F - -0.9 °F 31% 30.27 in 10.0 mi Calm Calm - N/A   Overcast
1:53 PM 28.0 °F - -0.0 °F 30% 30.25 in 10.0 mi Calm Calm - N/A   Scattered Clouds
2:53 PM 28.0 °F 21.7 °F 3.0 °F 34% 30.27 in 10.0 mi SW 5.8 mph - N/A   Overcast
3:53 PM 28.0 °F 24.2 °F 6.1 °F 39% 30.26 in 10.0 mi Variable 3.5 mph - N/A   Overcast
4:53 PM 27.0 °F 23.0 °F 7.0 °F 43% 30.24 in 10.0 mi Variable 3.5 mph - N/A   Overcast
5:53 PM 26.1 °F - 6.1 °F 43% 30.23 in 10.0 mi Calm Calm - N/A   Mostly Cloudy
6:53 PM 25.0 °F - 8.1 °F 49% 30.22 in 10.0 mi Calm Calm - N/A   Mostly Cloudy
7:53 PM 24.1 °F - 8.1 °F 51% 30.21 in 10.0 mi Calm Calm - N/A   Mostly Cloudy
8:53 PM 24.1 °F - 8.1 °F 51% 30.20 in 10.0 mi Calm Calm - N/A   Mostly Cloudy
9:53 PM 21.9 °F - 8.1 °F 55% 30.20 in 10.0 mi Calm Calm - N/A   Clear
10:53 PM 18.0 °F - 9.0 °F 68% 30.19 in 10.0 mi Calm Calm - N/A   Clear
11:53 PM 17.1 °F - 9.0 °F 71% 30.19 in 10.0 mi Calm Calm - N/A   Clear